GOES-R [S]

Last updated on Jan. 10, 2017, 12:16 a.m. UTC

1 41866U 16071A   17008.94661353 -.00000186  00000-0  00000+0 0  9998
2 41866   0.0356 169.1840 0000713 145.0291  45.7700  1.00263132   554
UTC
Height (km)
Latitude
Longitude
Inclination
Orbital Period
UTC large
Height (km)
Speed (km/s)
/
Latitude / Longitude
Inclination (degrees)
Orbital Period (minutes)
Azimuth
Elevation
Range (km)
Doppler Factor
iOS Compass Heading
iOS Angle